Private Wetterstation Wechselburg
Wetterdaten: Freitag, 13.05.2011
Datum Zeit Temp. +2m Bodentemp. Temp.+5cm Temp. Wind Windchill X Diff Temp. Feuchte +2m Feuchte +5cm Sonnenschein Luftdruck Regen Wind Richtung Richtung Sonnenschein UV Taupunkt Windchill Windben
13.05.2011 00:00 14,9 C 18,9 C 13,2 C 14,1 C 12,6 C 0,0 C 84 % 94 % 0 % 1015,0 hPa 0,0 l/m 1,1 km/h (1 Bft) S 180 0 min 0,0 UV-I 12,2 C 12,6 C 2,1 km/h (1 Bft)
13.05.2011 00:09 14,8 C 18,8 C 13,0 C 14,1 C 12,6 C 0,0 C 84 % 94 % 0 % 1015,0 hPa 0,0 l/m 1,6 km/h (1 Bft) N 0 0 min 0,0 UV-I 12,1 C 12,6 C 2,7 km/h (1 Bft)
13.05.2011 00:15 14,7 C 18,7 C 12,9 C 14,1 C 12,8 C 0,0 C 84 % 94 % 0 % 1015,6 hPa 0,0 l/m 3,4 km/h (1 Bft) S 180 0 min 0,0 UV-I 12,0 C 12,8 C 12,9 km/h (3 Bft)
13.05.2011 00:20 14,7 C 18,7 C 12,8 C 14,1 C 12,8 C 0,0 C 83 % 94 % 0 % 1015,6 hPa 0,0 l/m 5,3 km/h (1 Bft) W-SW 247 0 min 0,0 UV-I 11,8 C 12,8 C 4,5 km/h (1 Bft)
13.05.2011 00:25 14,5 C 18,6 C 12,5 C 13,9 C 12,6 C 0,0 C 82 % 93 % 0 % 1015,6 hPa 0,0 l/m 5,0 km/h (1 Bft) SW 225 0 min 0,0 UV-I 11,5 C 12,6 C 15,6 km/h (3 Bft)
13.05.2011 00:30 14,4 C 18,6 C 12,2 C 13,7 C 12,3 C 0,0 C 81 % 93 % 0 % 1015,6 hPa 0,0 l/m 4,3 km/h (1 Bft) W-SW 247 0 min 0,0 UV-I 11,2 C 12,3 C 4,3 km/h (1 Bft)
13.05.2011 00:35 14,1 C 18,6 C 11,9 C 13,3 C 11,8 C 0,0 C 79 % 92 % 0 % 1016,2 hPa 0,0 l/m 3,9 km/h (1 Bft) O-SO 112 0 min 0,0 UV-I 10,5 C 11,8 C 4,3 km/h (1 Bft)
13.05.2011 00:40 14,1 C 18,6 C 11,6 C 13,2 C 11,5 C 0,0 C 78 % 92 % 0 % 1016,2 hPa 0,0 l/m 4,7 km/h (1 Bft) SW 225 0 min 0,0 UV-I 10,3 C 11,5 C 8,2 km/h (2 Bft)
13.05.2011 00:45 13,8 C 18,5 C 11,2 C 13,0 C 11,3 C 0,0 C 77 % 92 % 0 % 1016,2 hPa 0,0 l/m 4,7 km/h (1 Bft) W 270 0 min 0,0 UV-I 9,8 C 11,3 C 3,1 km/h (1 Bft)
13.05.2011 00:50 13,7 C 18,5 C 11,1 C 12,9 C 11,2 C 0,0 C 76 % 91 % 0 % 1016,2 hPa 0,0 l/m 4,2 km/h (1 Bft) S-SO 157 0 min 0,0 UV-I 9,5 C 11,2 C 2,1 km/h (1 Bft)
13.05.2011 00:55 13,5 C 18,4 C 10,9 C 12,6 C 10,9 C 0,0 C 76 % 91 % 0 % 1016,1 hPa 0,0 l/m 3,5 km/h (1 Bft) SW 225 0 min 0,0 UV-I 9,4 C 10,9 C 2,3 km/h (1 Bft)
13.05.2011 01:00 13,5 C 18,4 C 10,8 C 12,6 C 10,8 C 0,0 C 76 % 91 % 0 % 1016,1 hPa 0,0 l/m 3,1 km/h (1 Bft) S 180 0 min 0,0 UV-I 9,4 C 10,8 C 5,8 km/h (2 Bft)
13.05.2011 01:10 13,2 C 18,3 C 10,7 C 12,4 C 10,7 C 0,0 C 76 % 91 % 0 % 1016,1 hPa 0,0 l/m 3,7 km/h (1 Bft) N 0 0 min 0,0 UV-I 9,1 C 10,7 C 8,5 km/h (2 Bft)
13.05.2011 01:15 13,1 C 18,5 C 10,5 C 12,2 C 10,3 C 0,0 C 76 % 91 % 0 % 1016,4 hPa 0,0 l/m 2,7 km/h (1 Bft) O-SO 112 0 min 0,0 UV-I 9,0 C 10,3 C 0,0 km/h (0 Bft)
13.05.2011 01:20 13,0 C 18,5 C 10,4 C 12,0 C 10,1 C 0,0 C 77 % 91 % 0 % 1016,4 hPa 0,0 l/m 1,8 km/h (1 Bft) SW 225 0 min 0,0 UV-I 9,1 C 10,1 C 1,6 km/h (1 Bft)
13.05.2011 01:25 12,9 C 18,5 C 10,4 C 11,9 C 9,9 C 0,0 C 78 % 92 % 0 % 1016,4 hPa 0,0 l/m 0,8 km/h (0 Bft) O-SO 112 0 min 0,0 UV-I 9,2 C 9,9 C 0,0 km/h (0 Bft)
13.05.2011 01:30 12,9 C 18,4 C 10,4 C 11,9 C 9,9 C 0,0 C 78 % 92 % 0 % 1016,4 hPa 0,0 l/m 1,0 km/h (0 Bft) W-SW 247 0 min 0,0 UV-I 9,2 C 9,9 C 4,8 km/h (1 Bft)
13.05.2011 01:35 12,9 C 18,4 C 10,5 C 11,9 C 9,9 C 0,0 C 78 % 92 % 0 % 1016,7 hPa 0,0 l/m 1,6 km/h (1 Bft) SW 225 0 min 0,0 UV-I 9,2 C 9,9 C 3,7 km/h (1 Bft)
13.05.2011 01:40 12,9 C 18,4 C 10,4 C 11,9 C 10,0 C 0,0 C 78 % 92 % 0 % 1016,7 hPa 0,0 l/m 2,6 km/h (1 Bft) W-SW 247 0 min 0,0 UV-I 9,2 C 10,0 C 4,0 km/h (1 Bft)
13.05.2011 01:45 12,9 C 18,3 C 10,3 C 12,0 C 10,1 C 0,0 C 78 % 92 % 0 % 1016,7 hPa 0,0 l/m 3,5 km/h (1 Bft) SW 225 0 min 0,0 UV-I 9,2 C 10,1 C 6,4 km/h (2 Bft)
13.05.2011 01:50 12,8 C 18,3 C 10,3 C 11,9 C 10,2 C 0,0 C 78 % 92 % 0 % 1016,7 hPa 0,0 l/m 3,7 km/h (1 Bft) S 180 0 min 0,0 UV-I 9,1 C 10,2 C 3,7 km/h (1 Bft)
13.05.2011 01:55 12,8 C 18,3 C 10,3 C 12,0 C 10,3 C 0,0 C 78 % 92 % 0 % 1017,2 hPa 0,0 l/m 3,9 km/h (1 Bft) S-SW 202 0 min 0,0 UV-I 9,1 C 10,3 C 4,7 km/h (1 Bft)
13.05.2011 02:00 12,7 C 18,2 C 10,3 C 11,9 C 10,3 C 0,0 C 78 % 92 % 0 % 1017,2 hPa 0,0 l/m 3,9 km/h (1 Bft) S 180 0 min 0,0 UV-I 9,0 C 10,3 C 3,4 km/h (1 Bft)
13.05.2011 02:10 12,6 C 18,2 C 10,3 C 11,8 C 10,3 C 0,0 C 78 % 93 % 0 % 1017,2 hPa 0,0 l/m 2,7 km/h (1 Bft) N 0 0 min 0,0 UV-I 8,9 C 10,3 C 2,7 km/h (1 Bft)
13.05.2011 02:15 12,7 C 18,2 C 10,4 C 11,9 C 10,2 C 0,0 C 79 % 93 % 0 % 1017,2 hPa 0,0 l/m 1,4 km/h (1 Bft) S-SW 202 0 min 0,0 UV-I 9,2 C 10,2 C 0,0 km/h (0 Bft)
13.05.2011 02:20 12,6 C 18,2 C 10,5 C 11,8 C 10,2 C 0,0 C 79 % 93 % 0 % 1017,2 hPa 0,0 l/m 0,8 km/h (0 Bft) SO 135 0 min 0,0 UV-I 9,1 C 10,2 C 0,0 km/h (0 Bft)
13.05.2011 02:25 12,5 C 18,3 C 10,4 C 11,7 C 10,1 C 0,0 C 80 % 93 % 0 % 1017,2 hPa 0,0 l/m 0,8 km/h (0 Bft) S-SW 202 0 min 0,0 UV-I 9,1 C 10,1 C 3,9 km/h (1 Bft)
13.05.2011 02:30 12,5 C 18,2 C 10,4 C 11,7 C 10,1 C 0,0 C 80 % 93 % 0 % 1017,2 hPa 0,0 l/m 1,9 km/h (1 Bft) SW 225 0 min 0,0 UV-I 9,1 C 10,1 C 6,4 km/h (2 Bft)
13.05.2011 02:35 12,5 C 18,2 C 10,3 C 11,7 C 10,1 C 0,0 C 80 % 93 % 0 % 1017,6 hPa 0,0 l/m 3,4 km/h (1 Bft) SW 225 0 min 0,0 UV-I 9,1 C 10,1 C 2,7 km/h (1 Bft)
13.05.2011 02:40 12,4 C 18,1 C 10,2 C 11,6 C 10,0 C 0,0 C 80 % 93 % 0 % 1017,6 hPa 0,0 l/m 2,9 km/h (1 Bft) W-SW 247 0 min 0,0 UV-I 9,0 C 10,0 C 2,1 km/h (1 Bft)
13.05.2011 02:45 12,4 C 18,1 C 10,3 C 11,5 C 9,8 C 0,0 C 80 % 93 % 0 % 1017,6 hPa 0,0 l/m 2,4 km/h (1 Bft) S 180 0 min 0,0 UV-I 9,0 C 9,8 C 2,6 km/h (1 Bft)
13.05.2011 02:50 12,4 C 18,1 C 10,3 C 11,5 C 9,7 C 0,0 C 80 % 93 % 0 % 1017,6 hPa 0,0 l/m 2,3 km/h (1 Bft) W-SW 247 0 min 0,0 UV-I 9,0 C 9,7 C 2,3 km/h (1 Bft)
13.05.2011 02:55 12,3 C 18,1 C 10,1 C 11,4 C 9,5 C 0,0 C 80 % 93 % 0 % 1017,9 hPa 0,0 l/m 1,1 km/h (1 Bft) W 270 0 min 0,0 UV-I 8,9 C 9,5 C 0,0 km/h (0 Bft)
13.05.2011 03:00 12,3 C 18,0 C 10,1 C 11,3 C 9,3 C 0,0 C 80 % 93 % 0 % 1017,9 hPa 0,0 l/m 0,6 km/h (0 Bft) W-SW 247 0 min 0,0 UV-I 8,9 C 9,3 C 2,4 km/h (1 Bft)
13.05.2011 03:10 12,2 C 18,1 C 10,0 C 11,2 C 9,2 C 0,0 C 80 % 93 % 0 % 1017,9 hPa 0,0 l/m 1,0 km/h (0 Bft) N 0 0 min 0,0 UV-I 8,9 C 9,2 C 0,0 km/h (0 Bft)
13.05.2011 03:15 12,1 C 18,1 C 10,0 C 11,0 C 8,9 C 0,0 C 80 % 93 % 0 % 1018,1 hPa 0,0 l/m 0,2 km/h (0 Bft) W-SW 247 0 min 0,0 UV-I 8,8 C 8,9 C 0,0 km/h (0 Bft)
13.05.2011 03:20 11,9 C 18,1 C 9,9 C 10,8 C 8,6 C 0,0 C 80 % 93 % 0 % 1018,1 hPa 0,0 l/m 0,0 km/h (0 Bft) W 270 0 min 0,0 UV-I 8,6 C 8,6 C 0,0 km/h (0 Bft)
13.05.2011 03:25 11,6 C 18,1 C 9,6 C 10,5 C 8,4 C 0,0 C 80 % 93 % 0 % 1018,1 hPa 0,0 l/m 0,0 km/h (0 Bft) W 270 0 min 0,0 UV-I 8,3 C 8,4 C 0,0 km/h (0 Bft)
13.05.2011 03:30 11,5 C 18,1 C 9,6 C 10,4 C 8,2 C 0,0 C 81 % 93 % 0 % 1018,1 hPa 0,0 l/m 0,0 km/h (0 Bft) W 270 0 min 0,0 UV-I 8,4 C 8,2 C 0,0 km/h (0 Bft)
13.05.2011 03:35 11,4 C 18,1 C 9,6 C 10,3 C 8,0 C 0,0 C 82 % 93 % 0 % 1018,2 hPa 0,0 l/m 0,0 km/h (0 Bft) W 270 0 min 0,0 UV-I 8,4 C 8,0 C 0,0 km/h (0 Bft)
13.05.2011 03:40 11,4 C 18,1 C 9,6 C 10,2 C 7,8 C 0,0 C 82 % 93 % 0 % 1018,2 hPa 0,0 l/m 0,0 km/h (0 Bft) W-SW 247 0 min 0,0 UV-I 8,4 C 7,8 C 0,0 km/h (0 Bft)
13.05.2011 03:45 11,3 C 18,1 C 9,6 C 10,1 C 7,7 C 0,0 C 82 % 94 % 0 % 1018,2 hPa 0,0 l/m 0,0 km/h (0 Bft) SW 225 0 min 0,0 UV-I 8,3 C 7,7 C 0,0 km/h (0 Bft)
13.05.2011 03:50 11,3 C 18,1 C 9,5 C 10,1 C 7,7 C 0,0 C 82 % 93 % 0 % 1018,2 hPa 0,0 l/m 0,0 km/h (0 Bft) SW 225 0 min 0,0 UV-I 8,3 C 7,7 C 0,0 km/h (0 Bft)
13.05.2011 03:55 11,4 C 18,1 C 9,5 C 10,2 C 7,7 C 0,0 C 83 % 94 % 0 % 1018,8 hPa 0,0 l/m 0,0 km/h (0 Bft) W-SW 247 0 min 0,0 UV-I 8,6 C 7,7 C 0,0 km/h (0 Bft)
13.05.2011 04:00 11,4 C 18,0 C 9,5 C 10,2 C 7,7 C 0,0 C 83 % 94 % 0 % 1018,8 hPa 0,0 l/m 0,0 km/h (0 Bft) W 270 0 min 0,0 UV-I 8,6 C 7,7 C 0,0 km/h (0 Bft)
13.05.2011 04:10 11,3 C 18,0 C 9,2 C 10,1 C 7,7 C 0,0 C 83 % 93 % 0 % 1018,8 hPa 0,7 l/m 1,0 km/h (0 Bft) N 0 0 min 0,0 UV-I 8,5 C 7,7 C 1,6 km/h (1 Bft)
13.05.2011 04:15 11,2 C 18,1 C 9,2 C 10,0 C 7,6 C 0,0 C 83 % 94 % 0 % 1018,8 hPa 0,0 l/m 0,8 km/h (0 Bft) W-SW 247 0 min 0,0 UV-I 8,4 C 7,6 C 0,0 km/h (0 Bft)
13.05.2011 04:20 11,2 C 18,0 C 9,2 C 10,0 C 7,5 C 0,0 C 82 % 94 % 0 % 1018,8 hPa 0,0 l/m 0,2 km/h (0 Bft) SW 225 0 min 0,0 UV-I 8,2 C 7,5 C 0,0 km/h (0 Bft)
13.05.2011 04:25 11,3 C 18,0 C 9,2 C 10,0 C 7,4 C 0,0 C 82 % 94 % 0 % 1018,8 hPa 0,0 l/m 0,6 km/h (0 Bft) S 180 0 min 0,0 UV-I 8,3 C 7,4 C 2,4 km/h (1 Bft)
13.05.2011 04:30 11,3 C 18,0 C 9,1 C 10,0 C 7,5 C 0,0 C 82 % 94 % 0 % 1018,8 hPa 0,0 l/m 0,6 km/h (0 Bft) SW 225 0 min 0,0 UV-I 8,3 C 7,5 C 0,0 km/h (0 Bft)
13.05.2011 04:35 11,2 C 17,9 C 9,1 C 10,0 C 7,5 C 0,0 C 82 % 94 % 0 % 1018,8 hPa 0,0 l/m 0,6 km/h (0 Bft) SW 225 0 min 0,0 UV-I 8,2 C 7,5 C 1,8 km/h (1 Bft)
13.05.2011 04:40 11,1 C 17,9 C 9,1 C 9,9 C 7,5 C 0,0 C 82 % 94 % 0 % 1018,8 hPa 0,0 l/m 0,8 km/h (0 Bft) W-SW 247 0 min 0,0 UV-I 8,1 C 7,5 C 2,1 km/h (1 Bft)
13.05.2011 04:45 11,1 C 17,9 C 9,1 C 9,9 C 7,5 C 0,0 C 82 % 94 % 0 % 1018,8 hPa 0,0 l/m 1,3 km/h (1 Bft) W-SW 247 0 min 0,0 UV-I 8,1 C 7,5 C 1,8 km/h (1 Bft)
13.05.2011 04:50 11,1 C 17,9 C 8,9 C 9,9 C 7,5 C 0,0 C 82 % 94 % 0 % 1018,8 hPa 0,0 l/m 0,8 km/h (0 Bft) S-SW 202 0 min 0,0 UV-I 8,1 C 7,5 C 2,1 km/h (1 Bft)
13.05.2011 04:55 10,8 C 17,9 C 8,8 C 9,7 C 7,4 C 0,0 C 81 % 94 % 0 % 1018,6 hPa 0,0 l/m 0,3 km/h (0 Bft) S 180 0 min 0,0 UV-I 7,7 C 7,4 C 0,0 km/h (0 Bft)
13.05.2011 05:00 10,7 C 17,9 C 8,8 C 9,6 C 7,3 C 0,0 C 81 % 94 % 0 % 1018,6 hPa 0,0 l/m 0,2 km/h (0 Bft) NO 45 0 min 0,0 UV-I 7,6 C 7,3 C 0,0 km/h (0 Bft)
13.05.2011 05:10 10,4 C 17,9 C 8,6 C 9,3 C 7,2 C 0,0 C 82 % 94 % 0 % 1018,6 hPa 0,0 l/m 0,0 km/h (0 Bft) N 0 0 min 0,0 UV-I 7,5 C 7,2 C 0,0 km/h (0 Bft)
13.05.2011 05:15 10,5 C 17,8 C 8,7 C 9,4 C 7,1 C 0,0 C 83 % 94 % 0 % 1019,0 hPa 0,0 l/m 0,0 km/h (0 Bft) S-SO 157 0 min 0,0 UV-I 7,7 C 7,1 C 0,0 km/h (0 Bft)
13.05.2011 05:20 10,5 C 17,8 C 8,6 C 9,3 C 7,0 C 0,0 C 83 % 94 % 0 % 1019,0 hPa 0,0 l/m 0,0 km/h (0 Bft) S 180 0 min 0,0 UV-I 7,7 C 7,0 C 0,0 km/h (0 Bft)
13.05.2011 05:25 10,4 C 17,8 C 8,6 C 9,3 C 7,1 C 0,0 C 83 % 94 % 0 % 1019,0 hPa 0,0 l/m 0,0 km/h (0 Bft) S-SO 157 0 min 0,0 UV-I 7,6 C 7,1 C 0,0 km/h (0 Bft)
13.05.2011 05:30 10,4 C 17,8 C 8,7 C 9,3 C 7,2 C 0,0 C 83 % 94 % 0 % 1019,0 hPa 0,0 l/m 0,2 km/h (0 Bft) SW 225 0 min 0,0 UV-I 7,6 C 7,2 C 2,9 km/h (1 Bft)
13.05.2011 05:35 10,7 C 17,7 C 8,9 C 9,6 C 7,5 C 0,0 C 83 % 94 % 0 % 1019,6 hPa 0,0 l/m 0,6 km/h (0 Bft) SW 225 0 min 0,0 UV-I 7,9 C 7,5 C 2,1 km/h (1 Bft)
13.05.2011 05:40 10,7 C 17,7 C 8,8 C 9,7 C 7,6 C 0,0 C 83 % 94 % 0 % 1019,6 hPa 0,0 l/m 1,1 km/h (1 Bft) S 180 0 min 0,0 UV-I 7,9 C 7,6 C 0,0 km/h (0 Bft)
13.05.2011 05:45 10,6 C 17,7 C 8,8 C 9,6 C 7,7 C 0,0 C 83 % 94 % 0 % 1019,6 hPa 0,0 l/m 0,6 km/h (0 Bft) SW 225 0 min 0,0 UV-I 7,8 C 7,7 C 0,0 km/h (0 Bft)
13.05.2011 05:50 10,6 C 17,7 C 8,8 C 9,7 C 7,8 C 0,0 C 83 % 94 % 0 % 1019,6 hPa 0,0 l/m 0,0 km/h (0 Bft) SW 225 0 min 0,0 UV-I 7,8 C 7,8 C 0,0 km/h (0 Bft)
13.05.2011 05:55 10,6 C 17,7 C 8,9 C 9,7 C 7,8 C 0,0 C 83 % 94 % 0 % 1019,6 hPa 0,0 l/m 0,0 km/h (0 Bft) W-SW 247 0 min 0,0 UV-I 7,8 C 7,8 C 0,0 km/h (0 Bft)
13.05.2011 06:00 10,7 C 17,6 C 8,9 C 9,8 C 7,9 C 0,0 C 83 % 94 % 0 % 1019,6 hPa 0,0 l/m 0,2 km/h (0 Bft) SW 225 0 min 0,0 UV-I 7,9 C 7,9 C 0,0 km/h (0 Bft)
13.05.2011 06:10 10,9 C 17,5 C 9,0 C 10,0 C 8,1 C 0,0 C 83 % 94 % 0 % 1019,6 hPa 0,0 l/m 0,5 km/h (0 Bft) N 0 0 min 0,0 UV-I 8,1 C 8,1 C 0,0 km/h (0 Bft)
13.05.2011 06:15 10,9 C 17,5 C 8,9 C 10,0 C 8,2 C 0,0 C 83 % 94 % 0 % 1020,1 hPa 0,0 l/m 0,5 km/h (0 Bft) SW 225 0 min 0,0 UV-I 8,1 C 8,2 C 1,8 km/h (1 Bft)
13.05.2011 06:20 11,1 C 17,4 C 9,1 C 10,1 C 8,2 C 0,0 C 83 % 94 % 0 % 1020,1 hPa 0,0 l/m 0,3 km/h (0 Bft) SW 225 0 min 0,0 UV-I 8,3 C 8,2 C 0,0 km/h (0 Bft)
13.05.2011 06:25 11,6 C 17,4 C 9,1 C 10,5 C 8,2 C 0,0 C 81 % 94 % 0 % 1020,1 hPa 0,0 l/m 0,3 km/h (0 Bft) SW 225 0 min 0,0 UV-I 8,5 C 8,2 C 0,0 km/h (0 Bft)
13.05.2011 06:30 11,5 C 17,4 C 9,1 C 10,4 C 8,2 C 0,0 C 81 % 94 % 0 % 1020,1 hPa 0,0 l/m 0,5 km/h (0 Bft) SW 225 0 min 0,0 UV-I 8,4 C 8,2 C 2,1 km/h (1 Bft)
13.05.2011 06:35 11,9 C 17,3 C 9,1 C 10,7 C 8,2 C 0,0 C 81 % 94 % 0 % 1019,7 hPa 0,0 l/m 0,5 km/h (0 Bft) SW 225 0 min 0,0 UV-I 8,7 C 8,2 C 1,9 km/h (1 Bft)
13.05.2011 06:40 12,3 C 17,3 C 9,2 C 11,0 C 8,3 C 0,0 C 79 % 94 % 0 % 1019,7 hPa 0,0 l/m 1,3 km/h (1 Bft) SW 225 0 min 0,0 UV-I 8,8 C 8,3 C 2,1 km/h (1 Bft)
13.05.2011 06:45 12,1 C 17,3 C 9,4 C 10,9 C 8,6 C 0,0 C 79 % 94 % 0 % 1019,7 hPa 0,0 l/m 1,9 km/h (1 Bft) W 270 0 min 0,0 UV-I 8,6 C 8,6 C 2,1 km/h (1 Bft)
13.05.2011 06:50 12,4 C 17,3 C 9,5 C 11,2 C 8,7 C 0,0 C 79 % 94 % 0 % 1019,7 hPa 0,0 l/m 1,6 km/h (1 Bft) SW 225 0 min 0,0 UV-I 8,9 C 8,7 C 0,0 km/h (0 Bft)
13.05.2011 06:55 13,6 C 17,3 C 9,6 C 12,2 C 9,3 C 0,0 C 77 % 94 % 0 % 1020,3 hPa 0,0 l/m 1,6 km/h (1 Bft) SW 225 0 min 0,0 UV-I 9,6 C 9,3 C 1,9 km/h (1 Bft)
13.05.2011 07:00 13,6 C 17,3 C 9,5 C 12,4 C 9,9 C 0,0 C 76 % 94 % 0 % 1020,3 hPa 0,0 l/m 1,8 km/h (1 Bft) W-SW 247 0 min 0,0 UV-I 9,4 C 9,9 C 3,7 km/h (1 Bft)
13.05.2011 07:10 12,5 C 17,2 C 9,5 C 11,6 C 9,9 C 0,0 C 77 % 94 % 0 % 1020,3 hPa 0,0 l/m 1,9 km/h (1 Bft) N 0 0 min 0,0 UV-I 8,6 C 9,9 C 3,4 km/h (1 Bft)
13.05.2011 07:15 12,2 C 17,1 C 9,6 C 11,4 C 9,8 C 0,0 C 78 % 94 % 0 % 1020,5 hPa 0,0 l/m 2,1 km/h (1 Bft) SW 225 0 min 0,0 UV-I 8,5 C 9,8 C 0,0 km/h (0 Bft)
13.05.2011 07:20 12,2 C 17,1 C 9,7 C 11,5 C 10,0 C 0,0 C 78 % 94 % 0 % 1020,5 hPa 0,0 l/m 1,4 km/h (1 Bft) S-SW 202 0 min 0,0 UV-I 8,5 C 10,0 C 0,0 km/h (0 Bft)
13.05.2011 07:25 12,2 C 17,1 C 9,9 C 11,6 C 10,4 C 0,0 C 79 % 94 % 0 % 1020,5 hPa 0,0 l/m 1,4 km/h (1 Bft) S-SW 202 0 min 0,0 UV-I 8,7 C 10,4 C 3,1 km/h (1 Bft)
13.05.2011 07:30 12,3 C 17,0 C 10,0 C 11,7 C 10,5 C 0,0 C 79 % 94 % 0 % 1020,5 hPa 0,0 l/m 1,6 km/h (1 Bft) S 180 0 min 0,0 UV-I 8,8 C 10,5 C 0,0 km/h (0 Bft)
13.05.2011 07:35 12,7 C 17,0 C 10,1 C 12,3 C 11,6 C 0,0 C 78 % 94 % 0 % 1020,6 hPa 0,0 l/m 2,1 km/h (1 Bft) SW 225 0 min 0,1 UV-I 9,0 C 11,6 C 4,5 km/h (1 Bft)
13.05.2011 07:40 12,7 C 17,0 C 10,1 C 13,0 C 13,0 C 0,3 C 78 % 94 % 8 % 1020,6 hPa 0,0 l/m 2,3 km/h (1 Bft) S-SO 157 0 min 0,1 UV-I 9,0 C 13,0 C 3,1 km/h (1 Bft)
13.05.2011 07:45 12,6 C 17,0 C 10,3 C 12,8 C 12,8 C 0,2 C 78 % 94 % 5 % 1020,6 hPa 0,0 l/m 2,6 km/h (1 Bft) NO 45 0 min 0,1 UV-I 8,9 C 12,8 C 0,0 km/h (0 Bft)
13.05.2011 07:50 12,7 C 17,0 C 10,3 C 12,7 C 12,7 C 0,0 C 78 % 94 % 0 % 1020,6 hPa 0,0 l/m 2,3 km/h (1 Bft) O-SO 112 0 min 0,1 UV-I 9,0 C 12,7 C 1,6 km/h (1 Bft)
13.05.2011 07:55 12,4 C 17,0 C 10,4 C 12,3 C 12,2 C 0,0 C 79 % 94 % 0 % 1021,1 hPa 0,0 l/m 1,4 km/h (1 Bft) S 180 0 min 0,1 UV-I 8,9 C 12,2 C 2,6 km/h (1 Bft)
13.05.2011 08:00 12,6 C 17,0 C 10,4 C 12,3 C 11,8 C 0,0 C 79 % 94 % 0 % 1021,1 hPa 0,0 l/m 2,1 km/h (1 Bft) S 180 0 min 0,1 UV-I 9,1 C 11,8 C 4,0 km/h (1 Bft)
13.05.2011 08:10 14,6 C 17,0 C 10,4 C 14,3 C 13,8 C 0,0 C 77 % 94 % 0 % 1021,1 hPa 0,0 l/m 2,9 km/h (1 Bft) N 0 0 min 0,2 UV-I 10,6 C 13,8 C 2,9 km/h (1 Bft)
13.05.2011 08:15 14,5 C 16,9 C 10,4 C 15,2 C 15,2 C 0,7 C 75 % 94 % 18 % 1020,9 hPa 0,0 l/m 3,4 km/h (1 Bft) SW 225 0 min 0,3 UV-I 10,1 C 15,2 C 4,7 km/h (1 Bft)
13.05.2011 08:20 14,3 C 16,9 C 10,5 C 15,5 C 15,5 C 1,2 C 74 % 94 % 32 % 1020,9 hPa 0,0 l/m 3,7 km/h (1 Bft) S 180 0 min 0,3 UV-I 9,7 C 15,5 C 6,1 km/h (2 Bft)
13.05.2011 08:25 14,4 C 16,9 C 10,5 C 15,4 C 15,4 C 1,0 C 73 % 93 % 26 % 1020,9 hPa 0,0 l/m 5,0 km/h (1 Bft) SW 225 0 min 0,4 UV-I 9,6 C 15,4 C 10,5 km/h (2 Bft)
13.05.2011 08:30 13,9 C 16,9 C 10,5 C 14,5 C 14,5 C 0,6 C 74 % 93 % 16 % 1020,9 hPa 0,0 l/m 5,8 km/h (2 Bft) N 360 0 min 0,4 UV-I 9,3 C 14,5 C 7,9 km/h (2 Bft)
13.05.2011 08:35 13,7 C 16,8 C 10,4 C 13,7 C 13,7 C 0,0 C 74 % 92 % 0 % 1021,0 hPa 0,0 l/m 6,3 km/h (2 Bft) W-NW 292 0 min 0,4 UV-I 9,2 C 13,7 C 4,3 km/h (1 Bft)
13.05.2011 08:40 13,8 C 16,8 C 10,4 C 14,8 C 14,8 C 1,0 C 74 % 92 % 26 % 1021,0 hPa 0,0 l/m 5,3 km/h (1 Bft) W-SW 247 0 min 0,4 UV-I 9,2 C 14,8 C 6,0 km/h (2 Bft)
13.05.2011 08:45 13,7 C 16,8 C 10,7 C 15,3 C 15,3 C 1,6 C 74 % 91 % 42 % 1021,0 hPa 0,0 l/m 4,7 km/h (1 Bft) SW 225 0 min 0,5 UV-I 9,2 C 15,3 C 6,9 km/h (2 Bft)
13.05.2011 08:50 13,7 C 16,8 C 10,7 C 15,3 C 15,3 C 1,6 C 75 % 91 % 42 % 1021,0 hPa 0,0 l/m 4,5 km/h (1 Bft) S-SW 202 0 min 0,5 UV-I 9,3 C 15,3 C 3,2 km/h (1 Bft)
13.05.2011 08:55 13,6 C 16,8 C 11,0 C 15,5 C 15,5 C 1,9 C 75 % 91 % 50 % 1021,4 hPa 0,0 l/m 4,8 km/h (1 Bft) W-SW 247 0 min 0,6 UV-I 9,3 C 15,5 C 3,4 km/h (1 Bft)
13.05.2011 09:00 13,6 C 16,8 C 11,0 C 15,6 C 15,6 C 2,0 C 75 % 90 % 53 % 1021,4 hPa 0,0 l/m 4,7 km/h (1 Bft) SW 225 0 min 0,6 UV-I 9,3 C 15,6 C 8,5 km/h (2 Bft)
13.05.2011 09:10 13,7 C 16,6 C 11,2 C 17,2 C 17,2 C 3,5 C 74 % 88 % 92 % 1021,4 hPa 0,0 l/m 5,5 km/h (1 Bft) N 0 10 min 0,8 UV-I 9,2 C 17,2 C 5,5 km/h (1 Bft)
13.05.2011 09:15 13,6 C 16,6 C 11,3 C 15,6 C 15,6 C 2,0 C 74 % 88 % 53 % 1021,6 hPa 0,0 l/m 5,0 km/h (1 Bft) S-SO 157 0 min 0,7 UV-I 9,1 C 15,6 C 3,5 km/h (1 Bft)
13.05.2011 09:20 13,6 C 16,6 C 11,3 C 15,2 C 15,2 C 1,6 C 74 % 88 % 42 % 1021,6 hPa 0,0 l/m 4,7 km/h (1 Bft) SW 225 0 min 0,7 UV-I 9,1 C 15,2 C 8,5 km/h (2 Bft)
13.05.2011 09:25 13,6 C 16,6 C 11,3 C 14,3 C 14,3 C 0,7 C 74 % 87 % 18 % 1021,6 hPa 0,0 l/m 6,0 km/h (2 Bft) S 180 0 min 0,6 UV-I 9,1 C 14,3 C 6,6 km/h (2 Bft)
13.05.2011 09:30 13,5 C 16,6 C 11,5 C 14,9 C 14,9 C 1,4 C 74 % 87 % 37 % 1021,6 hPa 0,0 l/m 6,4 km/h (2 Bft) W-SW 247 0 min 0,6 UV-I 9,0 C 14,9 C 6,3 km/h (2 Bft)
13.05.2011 09:35 13,7 C 16,6 C 11,6 C 15,2 C 15,2 C 1,5 C 74 % 87 % 39 % 1021,8 hPa 0,0 l/m 5,5 km/h (1 Bft) NO 45 0 min 0,7 UV-I 9,2 C 15,2 C 4,5 km/h (1 Bft)
13.05.2011 09:40 13,7 C 16,6 C 11,6 C 15,3 C 15,3 C 1,6 C 74 % 86 % 42 % 1021,8 hPa 0,0 l/m 5,5 km/h (1 Bft) S-SW 202 0 min 0,7 UV-I 9,2 C 15,3 C 7,2 km/h (2 Bft)
13.05.2011 09:45 13,7 C 16,6 C 11,7 C 14,6 C 14,6 C 0,9 C 74 % 86 % 24 % 1021,8 hPa 0,0 l/m 4,5 km/h (1 Bft) SO 135 0 min 0,8 UV-I 9,2 C 14,6 C 5,6 km/h (1 Bft)
13.05.2011 09:50 13,7 C 16,6 C 11,8 C 14,8 C 14,8 C 1,1 C 73 % 84 % 29 % 1021,8 hPa 0,0 l/m 5,1 km/h (1 Bft) SW 225 0 min 0,8 UV-I 8,9 C 14,8 C 6,6 km/h (2 Bft)
13.05.2011 09:55 13,7 C 16,5 C 11,8 C 14,1 C 14,1 C 0,4 C 72 % 84 % 11 % 1021,6 hPa 0,0 l/m 6,0 km/h (2 Bft) W-SW 247 0 min 0,7 UV-I 8,7 C 14,1 C 3,9 km/h (1 Bft)
13.05.2011 10:00 13,9 C 16,5 C 11,9 C 14,1 C 14,1 C 0,2 C 71 % 84 % 5 % 1021,6 hPa 0,0 l/m 5,3 km/h (1 Bft) S 180 0 min 0,7 UV-I 8,7 C 14,1 C 2,3 km/h (1 Bft)
13.05.2011 10:10 14,4 C 16,5 C 12,1 C 16,6 C 16,6 C 2,2 C 70 % 83 % 58 % 1021,6 hPa 0,0 l/m 4,5 km/h (1 Bft) N 0 0 min 1,0 UV-I 9,0 C 16,6 C 6,6 km/h (2 Bft)
13.05.2011 10:15 14,4 C 16,5 C 12,3 C 18,3 C 18,3 C 3,9 C 68 % 81 % 100 % 1021,7 hPa 0,0 l/m 3,9 km/h (1 Bft) SW 225 5 min 1,1 UV-I 8,6 C 18,3 C 5,3 km/h (1 Bft)
13.05.2011 10:20 14,3 C 16,5 C 12,3 C 17,7 C 17,7 C 3,4 C 68 % 80 % 89 % 1021,7 hPa 0,0 l/m 3,9 km/h (1 Bft) S 180 5 min 1,1 UV-I 8,5 C 17,7 C 10,1 km/h (2 Bft)
13.05.2011 10:25 14,1 C 16,5 C 12,3 C 15,9 C 15,9 C 1,8 C 68 % 79 % 47 % 1021,7 hPa 0,0 l/m 5,8 km/h (2 Bft) S-SW 202 0 min 0,9 UV-I 8,3 C 15,9 C 5,1 km/h (1 Bft)
13.05.2011 10:30 14,4 C 16,5 C 12,3 C 17,2 C 17,2 C 2,8 C 67 % 79 % 74 % 1021,7 hPa 0,0 l/m 6,1 km/h (2 Bft) NW 315 0 min 0,9 UV-I 8,4 C 17,2 C 4,7 km/h (1 Bft)
13.05.2011 10:35 14,4 C 16,5 C 12,5 C 18,1 C 18,1 C 3,7 C 67 % 78 % 97 % 1022,4 hPa 0,0 l/m 5,1 km/h (1 Bft) S-SW 202 5 min 1,2 UV-I 8,4 C 18,1 C 11,7 km/h (2 Bft)
13.05.2011 10:40 14,4 C 16,5 C 12,5 C 16,8 C 16,8 C 2,4 C 65 % 76 % 63 % 1022,4 hPa 0,0 l/m 6,0 km/h (2 Bft) W-SW 247 0 min 1,2 UV-I 7,9 C 16,8 C 4,8 km/h (1 Bft)
13.05.2011 10:45 14,4 C 16,5 C 12,6 C 17,2 C 17,2 C 2,8 C 65 % 75 % 74 % 1022,4 hPa 0,0 l/m 6,6 km/h (2 Bft) S 180 0 min 1,1 UV-I 7,9 C 17,2 C 5,5 km/h (1 Bft)
13.05.2011 10:50 14,4 C 16,5 C 12,5 C 16,0 C 16,0 C 1,6 C 65 % 75 % 42 % 1022,4 hPa 0,0 l/m 5,8 km/h (2 Bft) W 270 0 min 1,1 UV-I 7,9 C 16,0 C 6,1 km/h (2 Bft)
13.05.2011 10:55 14,7 C 16,5 C 12,7 C 17,1 C 17,1 C 2,4 C 63 % 74 % 63 % 1021,8 hPa 0,0 l/m 5,5 km/h (1 Bft) S-SO 157 0 min 1,1 UV-I 7,7 C 17,1 C 4,3 km/h (1 Bft)
13.05.2011 11:00 14,9 C 16,5 C 12,7 C 18,2 C 18,2 C 3,3 C 64 % 77 % 87 % 1021,8 hPa 0,0 l/m 5,1 km/h (1 Bft) SW 225 5 min 1,1 UV-I 8,2 C 18,2 C 14,3 km/h (3 Bft)
13.05.2011 11:10 15,2 C 16,5 C 13,1 C 18,4 C 18,4 C 3,2 C 61 % 73 % 84 % 1021,8 hPa 0,0 l/m 7,2 km/h (2 Bft) N 0 0 min 1,2 UV-I 7,7 C 18,4 C 7,1 km/h (2 Bft)
13.05.2011 11:15 15,3 C 16,5 C 13,5 C 18,2 C 18,2 C 2,9 C 61 % 72 % 76 % 1021,6 hPa 0,0 l/m 6,0 km/h (2 Bft) W-SW 247 0 min 1,4 UV-I 7,8 C 18,2 C 9,7 km/h (2 Bft)
13.05.2011 11:20 15,3 C 16,4 C 13,5 C 17,6 C 17,6 C 2,3 C 61 % 74 % 61 % 1021,6 hPa 0,0 l/m 5,3 km/h (1 Bft) W-SW 247 0 min 1,4 UV-I 7,8 C 17,6 C 4,7 km/h (1 Bft)
13.05.2011 11:25 15,2 C 16,5 C 13,3 C 16,5 C 16,5 C 1,3 C 60 % 71 % 34 % 1021,6 hPa 0,0 l/m 7,2 km/h (2 Bft) NW 315 0 min 1,3 UV-I 7,5 C 16,5 C 6,8 km/h (2 Bft)
13.05.2011 11:30 15,4 C 16,5 C 13,5 C 17,2 C 17,2 C 1,8 C 60 % 70 % 47 % 1021,6 hPa 0,0 l/m 6,8 km/h (2 Bft) SO 135 0 min 1,3 UV-I 7,7 C 17,2 C 2,9 km/h (1 Bft)
13.05.2011 11:35 15,3 C 16,4 C 13,7 C 18,3 C 18,3 C 3,0 C 60 % 72 % 79 % 1022,4 hPa 0,0 l/m 3,9 km/h (1 Bft) S 180 0 min 1,2 UV-I 7,6 C 18,3 C 7,6 km/h (2 Bft)
13.05.2011 11:40 15,4 C 16,4 C 13,6 C 17,8 C 17,8 C 2,4 C 61 % 72 % 63 % 1022,4 hPa 0,0 l/m 3,4 km/h (1 Bft) SW 225 0 min 1,2 UV-I 7,9 C 17,8 C 7,9 km/h (2 Bft)
13.05.2011 11:45 15,6 C 16,4 C 13,9 C 18,5 C 18,5 C 2,9 C 59 % 69 % 76 % 1022,4 hPa 0,0 l/m 6,3 km/h (2 Bft) S-SW 202 0 min 1,5 UV-I 7,6 C 18,5 C 16,7 km/h (3 Bft)
13.05.2011 11:50 15,9 C 16,4 C 14,1 C 18,8 C 18,8 C 2,9 C 59 % 70 % 76 % 1022,4 hPa 0,0 l/m 6,9 km/h (2 Bft) S-SO 157 0 min 1,5 UV-I 7,9 C 18,8 C 6,3 km/h (2 Bft)
13.05.2011 11:55 15,8 C 16,4 C 14,1 C 18,7 C 18,7 C 2,9 C 58 % 71 % 76 % 1021,9 hPa 0,0 l/m 7,7 km/h (2 Bft) S 180 0 min 1,6 UV-I 7,6 C 18,7 C 7,2 km/h (2 Bft)
13.05.2011 12:00 16,1 C 16,4 C 14,3 C 19,1 C 19,1 C 3,0 C 58 % 69 % 79 % 1021,9 hPa 0,0 l/m 6,0 km/h (2 Bft) SO 135 0 min 1,6 UV-I 7,8 C 19,1 C 0,0 km/h (0 Bft)
13.05.2011 12:10 15,9 C 16,4 C 14,5 C 18,9 C 18,9 C 3,0 C 58 % 67 % 79 % 1021,9 hPa 0,0 l/m 6,0 km/h (2 Bft) N 0 0 min 1,6 UV-I 7,6 C 18,9 C 7,6 km/h (2 Bft)
13.05.2011 12:15 16,1 C 16,4 C 14,5 C 18,0 C 18,0 C 1,9 C 58 % 66 % 50 % 1022,0 hPa 0,0 l/m 7,1 km/h (2 Bft) SW 225 0 min 2,8 UV-I 7,8 C 18,0 C 5,8 km/h (2 Bft)
13.05.2011 12:20 16,3 C 16,4 C 14,6 C 19,1 C 19,1 C 2,8 C 57 % 69 % 74 % 1022,0 hPa 0,0 l/m 7,4 km/h (2 Bft) SW 225 0 min 2,8 UV-I 7,8 C 19,1 C 8,7 km/h (2 Bft)
13.05.2011 12:25 16,2 C 16,4 C 14,9 C 18,5 C 18,5 C 2,3 C 58 % 68 % 61 % 1022,0 hPa 0,0 l/m 7,2 km/h (2 Bft) S 180 0 min 2,3 UV-I 7,9 C 18,5 C 8,2 km/h (2 Bft)
13.05.2011 12:30 16,7 C 16,4 C 14,9 C 19,1 C 19,1 C 2,4 C 58 % 68 % 63 % 1022,0 hPa 0,0 l/m 7,6 km/h (2 Bft) SW 225 0 min 2,3 UV-I 8,4 C 19,1 C 10,8 km/h (2 Bft)
13.05.2011 12:35 16,9 C 16,4 C 15,3 C 20,0 C 20,0 C 3,1 C 58 % 69 % 82 % 1022,8 hPa 0,0 l/m 7,2 km/h (2 Bft) S 180 0 min 3,4 UV-I 8,6 C 20,0 C 9,7 km/h (2 Bft)
13.05.2011 12:40 16,6 C 16,4 C 15,4 C 19,8 C 19,8 C 3,2 C 57 % 68 % 84 % 1022,8 hPa 0,0 l/m 8,2 km/h (2 Bft) S 180 0 min 3,4 UV-I 8,0 C 19,8 C 16,4 km/h (3 Bft)
13.05.2011 12:45 16,9 C 16,4 C 15,4 C 19,6 C 19,6 C 2,7 C 56 % 68 % 71 % 1022,8 hPa 0,0 l/m 6,9 km/h (2 Bft) S 180 0 min 3,4 UV-I 8,1 C 19,6 C 17,5 km/h (3 Bft)
13.05.2011 12:50 16,8 C 16,4 C 15,4 C 19,6 C 19,6 C 2,8 C 57 % 68 % 74 % 1022,8 hPa 0,0 l/m 7,1 km/h (2 Bft) W-SW 247 0 min 3,4 UV-I 8,2 C 19,6 C 9,0 km/h (2 Bft)
13.05.2011 12:55 16,6 C 16,4 C 15,4 C 18,3 C 18,3 C 1,7 C 55 % 68 % 45 % 1022,0 hPa 0,0 l/m 7,4 km/h (2 Bft) SW 225 0 min 2,0 UV-I 7,5 C 18,3 C 4,0 km/h (1 Bft)
13.05.2011 13:00 16,8 C 16,4 C 15,4 C 18,5 C 18,5 C 1,7 C 55 % 68 % 45 % 1022,0 hPa 0,0 l/m 7,1 km/h (2 Bft) W-NW 292 0 min 2,0 UV-I 7,7 C 18,5 C 6,4 km/h (2 Bft)
13.05.2011 13:10 16,8 C 16,4 C 15,4 C 19,4 C 19,4 C 2,6 C 56 % 68 % 68 % 1022,0 hPa 0,0 l/m 5,8 km/h (2 Bft) N 0 0 min 3,3 UV-I 8,0 C 19,4 C 13,2 km/h (3 Bft)
13.05.2011 13:15 16,7 C 16,4 C 15,4 C 18,8 C 18,8 C 2,1 C 54 % 68 % 55 % 1022,1 hPa 0,0 l/m 5,5 km/h (1 Bft) NO 45 0 min 2,1 UV-I 7,3 C 18,8 C 4,7 km/h (1 Bft)
13.05.2011 13:20 16,9 C 16,4 C 15,4 C 18,6 C 18,6 C 1,7 C 54 % 68 % 45 % 1022,1 hPa 0,0 l/m 6,0 km/h (2 Bft) S 180 0 min 2,1 UV-I 7,5 C 18,6 C 11,7 km/h (2 Bft)
13.05.2011 13:25 16,9 C 16,4 C 15,4 C 19,1 C 19,1 C 2,2 C 54 % 68 % 58 % 1022,1 hPa 0,0 l/m 6,9 km/h (2 Bft) S-SW 202 0 min 2,1 UV-I 7,5 C 19,1 C 6,0 km/h (2 Bft)
13.05.2011 13:30 17,0 C 16,4 C 15,4 C 18,6 C 18,6 C 1,6 C 55 % 68 % 42 % 1022,1 hPa 0,0 l/m 7,7 km/h (2 Bft) S 180 0 min 2,1 UV-I 7,9 C 18,6 C 7,7 km/h (2 Bft)
13.05.2011 13:35 17,3 C 16,4 C 15,4 C 20,3 C 20,3 C 3,0 C 55 % 68 % 79 % 1021,9 hPa 0,0 l/m 5,8 km/h (2 Bft) S 180 0 min 3,8 UV-I 8,2 C 20,3 C 8,4 km/h (2 Bft)
13.05.2011 13:40 17,3 C 16,4 C 15,4 C 20,7 C 20,7 C 3,4 C 53 % 68 % 89 % 1021,9 hPa 0,0 l/m 4,8 km/h (1 Bft) S 180 5 min 3,8 UV-I 7,6 C 20,7 C 6,9 km/h (2 Bft)
13.05.2011 13:45 17,6 C 16,5 C 15,4 C 20,7 C 20,7 C 3,1 C 53 % 68 % 82 % 1021,9 hPa 0,0 l/m 6,1 km/h (2 Bft) SW 225 0 min 3,4 UV-I 7,9 C 20,7 C 7,9 km/h (2 Bft)
13.05.2011 13:50 17,5 C 16,5 C 17,0 C 20,6 C 20,6 C 3,1 C 52 % 59 % 82 % 1021,9 hPa 0,0 l/m 6,1 km/h (2 Bft) O-NO 67 0 min 3,4 UV-I 7,5 C 20,6 C 6,0 km/h (2 Bft)
13.05.2011 13:55 17,6 C 16,5 C 17,0 C 20,4 C 20,4 C 2,8 C 52 % 59 % 74 % 1021,8 hPa 0,0 l/m 5,3 km/h (1 Bft) S 180 0 min 2,6 UV-I 7,6 C 20,4 C 11,9 km/h (2 Bft)
13.05.2011 14:00 17,6 C 16,5 C 17,0 C 20,9 C 20,9 C 3,3 C 52 % 59 % 87 % 1021,8 hPa 0,0 l/m 4,3 km/h (1 Bft) W-SW 247 5 min 2,6 UV-I 7,6 C 20,9 C 4,5 km/h (1 Bft)
13.05.2011 14:10 18,1 C 16,4 C 17,0 C 21,6 C 21,6 C 3,5 C 52 % 59 % 92 % 1021,8 hPa 0,0 l/m 4,8 km/h (1 Bft) N 0 10 min 2,3 UV-I 8,1 C 21,6 C 8,5 km/h (2 Bft)
13.05.2011 14:15 18,3 C 16,4 C 17,0 C 21,9 C 21,9 C 3,6 C 50 % 59 % 95 % 1021,9 hPa 0,0 l/m 6,9 km/h (2 Bft) SW 225 5 min 3,5 UV-I 7,7 C 21,9 C 6,8 km/h (2 Bft)
13.05.2011 14:20 18,5 C 16,4 C 17,0 C 21,7 C 21,7 C 3,2 C 51 % 59 % 84 % 1021,9 hPa 0,0 l/m 7,4 km/h (2 Bft) S 180 0 min 3,5 UV-I 8,2 C 21,7 C 7,6 km/h (2 Bft)
13.05.2011 14:25 18,7 C 16,5 C 17,0 C 22,7 C 22,7 C 4,0 C 50 % 59 % 100 % 1021,9 hPa 0,0 l/m 5,8 km/h (2 Bft) S 180 5 min 3,5 UV-I 8,1 C 22,7 C 6,9 km/h (2 Bft)
13.05.2011 14:30 18,5 C 16,4 C 17,0 C 21,9 C 21,9 C 3,4 C 49 % 59 % 89 % 1021,9 hPa 0,0 l/m 6,6 km/h (2 Bft) W-SW 247 5 min 3,5 UV-I 7,6 C 21,9 C 10,6 km/h (2 Bft)
13.05.2011 14:35 18,3 C 16,4 C 17,0 C 21,4 C 21,4 C 3,1 C 49 % 59 % 82 % 1021,6 hPa 0,0 l/m 7,6 km/h (2 Bft) SW 225 0 min 2,4 UV-I 7,4 C 21,4 C 12,7 km/h (3 Bft)
13.05.2011 14:40 18,4 C 16,5 C 17,0 C 20,8 C 20,8 C 2,4 C 49 % 59 % 63 % 1021,6 hPa 0,0 l/m 7,2 km/h (2 Bft) O-SO 112 0 min 2,4 UV-I 7,5 C 20,8 C 6,3 km/h (2 Bft)
13.05.2011 14:45 18,8 C 16,5 C 17,0 C 21,4 C 21,4 C 2,6 C 49 % 59 % 68 % 1021,6 hPa 0,0 l/m 7,7 km/h (2 Bft) W-SW 247 0 min 2,8 UV-I 7,9 C 21,4 C 8,5 km/h (2 Bft)
13.05.2011 14:50 18,9 C 16,5 C 17,0 C 21,9 C 21,9 C 3,0 C 49 % 59 % 79 % 1021,6 hPa 0,0 l/m 6,6 km/h (2 Bft) SW 225 0 min 2,8 UV-I 7,9 C 21,9 C 7,1 km/h (2 Bft)
13.05.2011 14:55 19,1 C 16,5 C 17,0 C 23,4 C 23,4 C 4,3 C 48 % 59 % 100 % 1021,2 hPa 0,0 l/m 4,8 km/h (1 Bft) W-SW 247 5 min 2,9 UV-I 7,8 C 23,4 C 11,6 km/h (2 Bft)
13.05.2011 15:00 19,0 C 16,5 C 17,0 C 22,8 C 22,8 C 3,8 C 47 % 59 % 100 % 1021,2 hPa 0,0 l/m 5,0 km/h (1 Bft) SW 225 5 min 2,9 UV-I 7,4 C 22,8 C 6,4 km/h (2 Bft)
13.05.2011 15:10 18,7 C 16,5 C 17,0 C 21,1 C 21,1 C 2,4 C 47 % 59 % 63 % 1021,2 hPa 0,0 l/m 5,3 km/h (1 Bft) N 0 0 min 1,7 UV-I 7,2 C 21,1 C 7,1 km/h (2 Bft)
13.05.2011 15:15 18,5 C 16,6 C 17,0 C 20,5 C 20,5 C 2,0 C 47 % 59 % 53 % 1021,3 hPa 0,0 l/m 4,0 km/h (1 Bft) W-SW 247 0 min 1,3 UV-I 7,0 C 20,5 C 6,3 km/h (2 Bft)
13.05.2011 15:20 18,5 C 16,6 C 17,0 C 20,2 C 20,2 C 1,7 C 47 % 59 % 45 % 1021,3 hPa 0,0 l/m 4,2 km/h (1 Bft) SW 225 0 min 1,3 UV-I 7,0 C 20,2 C 7,7 km/h (2 Bft)
13.05.2011 15:25 19,1 C 16,6 C 20,8 C 22,1 C 22,1 C 3,0 C 46 % 47 % 79 % 1021,3 hPa 0,0 l/m 4,2 km/h (1 Bft) SW 225 0 min 2,4 UV-I 7,2 C 22,1 C 5,8 km/h (2 Bft)
13.05.2011 15:30 19,4 C 16,6 C 21,1 C 23,1 C 23,1 C 3,7 C 47 % 49 % 97 % 1021,3 hPa 0,0 l/m 4,0 km/h (1 Bft) W-SW 247 5 min 2,4 UV-I 7,8 C 23,1 C 6,6 km/h (2 Bft)
13.05.2011 15:35 19,8 C 16,7 C 22,0 C 24,2 C 24,2 C 4,4 C 45 % 47 % 100 % 1020,9 hPa 0,0 l/m 3,9 km/h (1 Bft) W-SW 247 5 min 2,3 UV-I 7,5 C 24,2 C 2,7 km/h (1 Bft)
13.05.2011 15:40 19,9 C 16,7 C 22,0 C 24,6 C 24,6 C 4,7 C 45 % 48 % 100 % 1020,9 hPa 0,0 l/m 3,5 km/h (1 Bft) S-SW 202 5 min 2,3 UV-I 7,6 C 24,6 C 2,6 km/h (1 Bft)
13.05.2011 15:45 19,9 C 16,7 C 22,4 C 24,3 C 24,3 C 4,4 C 45 % 46 % 100 % 1020,9 hPa 0,0 l/m 4,8 km/h (1 Bft) O-SO 112 5 min 2,1 UV-I 7,6 C 24,3 C 0,0 km/h (0 Bft)
13.05.2011 15:50 20,0 C 16,8 C 22,2 C 24,5 C 24,5 C 4,5 C 46 % 48 % 100 % 1020,9 hPa 0,0 l/m 4,0 km/h (1 Bft) S-SW 202 5 min 2,1 UV-I 8,0 C 24,5 C 4,0 km/h (1 Bft)
13.05.2011 15:55 20,1 C 16,8 C 22,1 C 24,8 C 24,8 C 4,7 C 45 % 46 % 100 % 1020,8 hPa 0,0 l/m 2,4 km/h (1 Bft) W-NW 292 5 min 2,0 UV-I 7,8 C 24,8 C 3,2 km/h (1 Bft)
13.05.2011 16:00 19,7 C 16,8 C 21,2 C 24,7 C 24,7 C 5,0 C 44 % 44 % 100 % 1020,8 hPa 0,0 l/m 2,9 km/h (1 Bft) N-NO 22 5 min 2,0 UV-I 7,1 C 24,7 C 0,0 km/h (0 Bft)
13.05.2011 16:10 19,3 C 16,8 C 20,0 C 22,3 C 22,3 C 3,0 C 45 % 50 % 79 % 1020,8 hPa 0,0 l/m 3,7 km/h (1 Bft) N 0 0 min 1,4 UV-I 7,1 C 22,3 C 6,4 km/h (2 Bft)
13.05.2011 16:15 19,3 C 16,9 C 20,0 C 21,2 C 21,2 C 1,9 C 45 % 48 % 50 % 1020,8 hPa 0,0 l/m 4,7 km/h (1 Bft) W-SW 247 0 min 1,3 UV-I 7,1 C 21,2 C 6,3 km/h (2 Bft)
13.05.2011 16:20 19,6 C 16,9 C 20,5 C 21,5 C 21,5 C 1,9 C 45 % 50 % 50 % 1020,8 hPa 0,0 l/m 4,5 km/h (1 Bft) W 270 0 min 1,3 UV-I 7,3 C 21,5 C 2,9 km/h (1 Bft)
13.05.2011 16:25 19,8 C 16,9 C 20,8 C 22,7 C 22,7 C 2,9 C 46 % 50 % 76 % 1020,8 hPa 0,0 l/m 3,5 km/h (1 Bft) S-SW 202 0 min 1,4 UV-I 7,8 C 22,7 C 3,7 km/h (1 Bft)
13.05.2011 16:30 20,0 C 16,9 C 21,3 C 23,3 C 23,3 C 3,3 C 45 % 51 % 87 % 1020,8 hPa 0,0 l/m 3,1 km/h (1 Bft) SW 225 5 min 1,4 UV-I 7,7 C 23,3 C 3,5 km/h (1 Bft)
13.05.2011 16:35 20,1 C 17,0 C 21,4 C 23,4 C 23,4 C 3,3 C 45 % 45 % 87 % 1020,6 hPa 0,0 l/m 4,0 km/h (1 Bft) SW 225 5 min 1,0 UV-I 7,8 C 23,4 C 6,6 km/h (2 Bft)
13.05.2011 16:40 20,3 C 17,1 C 21,2 C 23,2 C 23,2 C 2,9 C 44 % 44 % 76 % 1020,6 hPa 0,0 l/m 4,5 km/h (1 Bft) S 180 0 min 1,0 UV-I 7,6 C 23,2 C 5,3 km/h (1 Bft)
13.05.2011 16:45 20,2 C 17,1 C 21,1 C 23,8 C 23,8 C 3,6 C 42 % 44 % 95 % 1020,6 hPa 0,0 l/m 3,2 km/h (1 Bft) O-NO 67 5 min 0,9 UV-I 6,9 C 23,8 C 0,0 km/h (0 Bft)
13.05.2011 16:50 20,1 C 17,1 C 20,5 C 23,5 C 23,5 C 3,4 C 44 % 51 % 89 % 1020,6 hPa 0,0 l/m 2,1 km/h (1 Bft) W-SW 247 5 min 0,9 UV-I 7,5 C 23,5 C 5,6 km/h (1 Bft)
13.05.2011 16:55 20,5 C 17,1 C 21,1 C 23,5 C 23,5 C 3,0 C 44 % 48 % 79 % 1020,6 hPa 0,0 l/m 3,4 km/h (1 Bft) W-SW 247 0 min 0,8 UV-I 7,8 C 23,5 C 10,0 km/h (2 Bft)
13.05.2011 17:00 20,5 C 17,2 C 21,1 C 23,6 C 23,6 C 3,1 C 43 % 47 % 82 % 1020,6 hPa 0,0 l/m 4,0 km/h (1 Bft) SW 225 0 min 0,8 UV-I 7,5 C 23,6 C 2,6 km/h (1 Bft)
13.05.2011 17:10 20,8 C 17,2 C 21,1 C 24,3 C 24,3 C 3,5 C 44 % 51 % 92 % 1020,6 hPa 0,0 l/m 2,4 km/h (1 Bft) N 0 10 min 0,9 UV-I 8,1 C 24,3 C 5,3 km/h (1 Bft)
13.05.2011 17:15 20,6 C 17,2 C 20,5 C 23,8 C 23,8 C 3,2 C 43 % 48 % 84 % 1020,8 hPa 0,0 l/m 2,7 km/h (1 Bft) S-SW 202 0 min 0,7 UV-I 7,6 C 23,8 C 5,6 km/h (1 Bft)
13.05.2011 17:20 20,6 C 17,3 C 20,5 C 23,1 C 23,1 C 2,5 C 43 % 49 % 66 % 1020,8 hPa 0,0 l/m 4,0 km/h (1 Bft) S 180 0 min 0,7 UV-I 7,6 C 23,1 C 5,6 km/h (1 Bft)
13.05.2011 17:25 20,4 C 17,3 C 20,2 C 22,6 C 22,6 C 2,2 C 42 % 47 % 58 % 1020,8 hPa 0,0 l/m 4,5 km/h (1 Bft) SO 135 0 min 0,7 UV-I 7,1 C 22,6 C 2,9 km/h (1 Bft)
13.05.2011 17:30 20,0 C 17,3 C 19,7 C 22,2 C 22,2 C 2,2 C 43 % 46 % 58 % 1020,8 hPa 0,0 l/m 3,7 km/h (1 Bft) W-SW 247 0 min 0,7 UV-I 7,0 C 22,2 C 3,9 km/h (1 Bft)
13.05.2011 17:35 20,3 C 17,3 C 19,6 C 21,8 C 21,8 C 1,5 C 43 % 48 % 39 % 1020,7 hPa 0,0 l/m 2,1 km/h (1 Bft) W-NW 292 0 min 0,5 UV-I 7,3 C 21,8 C 4,2 km/h (1 Bft)
13.05.2011 17:40 20,2 C 17,3 C 19,3 C 22,1 C 22,1 C 1,9 C 43 % 49 % 50 % 1020,7 hPa 0,0 l/m 1,0 km/h (0 Bft) O 90 0 min 0,5 UV-I 7,2 C 22,1 C 0,0 km/h (0 Bft)
13.05.2011 17:45 20,0 C 17,3 C 18,9 C 21,9 C 21,9 C 1,9 C 43 % 52 % 50 % 1020,7 hPa 0,0 l/m 1,1 km/h (1 Bft) SW 225 0 min 0,4 UV-I 7,0 C 21,9 C 2,3 km/h (1 Bft)
13.05.2011 17:50 20,2 C 17,4 C 19,2 C 22,1 C 22,1 C 1,9 C 43 % 51 % 50 % 1020,7 hPa 0,0 l/m 1,1 km/h (1 Bft) SW 225 0 min 0,4 UV-I 7,2 C 22,1 C 0,0 km/h (0 Bft)
13.05.2011 17:55 20,4 C 17,4 C 19,9 C 23,0 C 23,0 C 2,6 C 43 % 52 % 68 % 1020,7 hPa 0,0 l/m 1,4 km/h (1 Bft) W 270 0 min 0,4 UV-I 7,4 C 23,0 C 0,0 km/h (0 Bft)
13.05.2011 18:00 20,5 C 17,4 C 19,7 C 23,3 C 23,3 C 2,8 C 43 % 52 % 74 % 1020,7 hPa 0,0 l/m 1,4 km/h (1 Bft) SW 225 0 min 0,4 UV-I 7,5 C 23,3 C 2,6 km/h (1 Bft)
13.05.2011 18:10 20,7 C 17,4 C 19,5 C 23,8 C 23,8 C 3,1 C 42 % 52 % 82 % 1020,7 hPa 0,0 l/m 2,1 km/h (1 Bft) N 0 0 min 0,3 UV-I 7,3 C 23,8 C 4,8 km/h (1 Bft)
13.05.2011 18:15 20,8 C 17,4 C 19,7 C 23,5 C 23,5 C 2,7 C 41 % 48 % 71 % 1020,4 hPa 0,0 l/m 3,7 km/h (1 Bft) W 270 0 min 0,3 UV-I 7,1 C 23,5 C 1,8 km/h (1 Bft)
13.05.2011 18:20 20,8 C 17,4 C 19,6 C 23,5 C 23,5 C 2,7 C 41 % 49 % 71 % 1020,4 hPa 0,0 l/m 2,7 km/h (1 Bft) W-NW 292 0 min 0,3 UV-I 7,1 C 23,5 C 1,6 km/h (1 Bft)
13.05.2011 18:25 21,1 C 17,4 C 19,7 C 23,7 C 23,7 C 2,6 C 41 % 49 % 68 % 1020,4 hPa 0,0 l/m 2,3 km/h (1 Bft) W-SW 247 0 min 0,2 UV-I 7,3 C 23,7 C 4,8 km/h (1 Bft)
13.05.2011 18:30 21,0 C 17,4 C 19,8 C 23,5 C 23,5 C 2,5 C 41 % 51 % 66 % 1020,4 hPa 0,0 l/m 3,1 km/h (1 Bft) W-SW 247 0 min 0,2 UV-I 7,2 C 23,5 C 3,4 km/h (1 Bft)
13.05.2011 18:35 20,6 C 17,4 C 19,5 C 22,8 C 22,8 C 2,2 C 41 % 50 % 58 % 1020,2 hPa 0,0 l/m 3,2 km/h (1 Bft) SW 225 0 min 0,2 UV-I 6,9 C 22,8 C 2,7 km/h (1 Bft)
13.05.2011 18:40 20,6 C 17,4 C 19,1 C 22,1 C 22,1 C 1,5 C 42 % 52 % 39 % 1020,2 hPa 0,0 l/m 2,7 km/h (1 Bft) SW 225 0 min 0,2 UV-I 7,2 C 22,1 C 5,0 km/h (1 Bft)
13.05.2011 18:45 20,6 C 17,4 C 18,9 C 21,8 C 21,8 C 1,2 C 42 % 51 % 32 % 1020,2 hPa 0,0 l/m 2,1 km/h (1 Bft) NW 315 0 min 0,1 UV-I 7,2 C 21,8 C 2,3 km/h (1 Bft)
13.05.2011 18:50 20,5 C 17,4 C 18,8 C 22,2 C 22,2 C 1,7 C 42 % 50 % 45 % 1020,2 hPa 0,0 l/m 1,4 km/h (1 Bft) W 270 0 min 0,1 UV-I 7,1 C 22,2 C 2,1 km/h (1 Bft)
13.05.2011 18:55 20,6 C 17,5 C 18,7 C 22,2 C 22,2 C 1,6 C 43 % 52 % 42 % 1020,2 hPa 0,0 l/m 0,8 km/h (0 Bft) O-SO 112 0 min 0,1 UV-I 7,6 C 22,2 C 2,3 km/h (1 Bft)
13.05.2011 19:00 20,5 C 17,5 C 18,5 C 22,1 C 22,1 C 1,6 C 42 % 52 % 42 % 1020,2 hPa 0,0 l/m 1,0 km/h (0 Bft) S 180 0 min 0,1 UV-I 7,1 C 22,1 C 3,2 km/h (1 Bft)
13.05.2011 19:10 20,4 C 17,6 C 18,3 C 21,8 C 21,8 C 1,4 C 43 % 52 % 37 % 1020,2 hPa 0,0 l/m 0,8 km/h (0 Bft) N 0 0 min 0,1 UV-I 7,4 C 21,8 C 0,0 km/h (0 Bft)
13.05.2011 19:15 20,3 C 17,6 C 18,3 C 21,4 C 21,4 C 1,1 C 43 % 54 % 29 % 1020,4 hPa 0,0 l/m 0,3 km/h (0 Bft) O 90 0 min 0,0 UV-I 7,3 C 21,4 C 0,0 km/h (0 Bft)
13.05.2011 19:20 20,1 C 17,6 C 18,3 C 21,1 C 21,1 C 1,0 C 43 % 54 % 26 % 1020,4 hPa 0,0 l/m 0,3 km/h (0 Bft) SW 225 0 min 0,0 UV-I 7,1 C 21,1 C 0,0 km/h (0 Bft)
13.05.2011 19:25 20,0 C 17,6 C 18,1 C 20,4 C 20,4 C 0,4 C 47 % 54 % 11 % 1020,4 hPa 0,0 l/m 0,2 km/h (0 Bft) SO 135 0 min 0,0 UV-I 8,3 C 20,4 C 1,9 km/h (1 Bft)
13.05.2011 19:30 19,5 C 17,6 C 17,6 C 20,0 C 20,0 C 0,5 C 45 % 54 % 13 % 1020,4 hPa 0,0 l/m 0,2 km/h (0 Bft) NO 45 0 min 0,0 UV-I 7,2 C 20,0 C 0,0 km/h (0 Bft)
13.05.2011 19:35 19,1 C 17,6 C 17,3 C 19,0 C 18,9 C 0,0 C 46 % 56 % 0 % 1020,4 hPa 0,0 l/m 0,0 km/h (0 Bft) O-NO 67 0 min 0,0 UV-I 7,2 C 18,9 C 0,0 km/h (0 Bft)
13.05.2011 19:40 18,8 C 17,6 C 17,0 C 18,7 C 18,4 C 0,0 C 46 % 56 % 0 % 1020,4 hPa 0,0 l/m 0,0 km/h (0 Bft) NO 45 0 min 0,0 UV-I 6,9 C 18,4 C 0,0 km/h (0 Bft)
13.05.2011 19:45 18,5 C 17,6 C 16,7 C 18,2 C 17,6 C 0,0 C 46 % 56 % 0 % 1020,4 hPa 0,0 l/m 0,0 km/h (0 Bft) O-NO 67 0 min 0,0 UV-I 6,7 C 17,6 C 0,0 km/h (0 Bft)
13.05.2011 19:50 18,4 C 17,6 C 16,5 C 18,0 C 17,2 C 0,0 C 48 % 57 % 0 % 1020,4 hPa 0,0 l/m 0,0 km/h (0 Bft) NO 45 0 min 0,0 UV-I 7,2 C 17,2 C 0,0 km/h (0 Bft)
13.05.2011 19:55 18,1 C 17,6 C 16,3 C 17,6 C 16,6 C 0,0 C 50 % 59 % 0 % 1020,1 hPa 0,0 l/m 0,0 km/h (0 Bft) NO 45 0 min 0,0 UV-I 7,5 C 16,6 C 0,0 km/h (0 Bft)
13.05.2011 20:00 18,1 C 17,6 C 16,1 C 17,5 C 16,2 C 0,0 C 50 % 59 % 0 % 1020,1 hPa 0,0 l/m 0,0 km/h (0 Bft) NO 45 0 min 0,0 UV-I 7,5 C 16,2 C 0,0 km/h (0 Bft)
13.05.2011 20:10 17,5 C 17,6 C 15,7 C 16,8 C 15,4 C 0,0 C 52 % 60 % 0 % 1020,1 hPa 0,0 l/m 0,0 km/h (0 Bft) N 0 0 min 0,0 UV-I 7,5 C 15,4 C 0,0 km/h (0 Bft)
13.05.2011 20:15 17,3 C 17,6 C 15,5 C 16,5 C 14,9 C 0,0 C 55 % 62 % 0 % 1020,4 hPa 0,0 l/m 0,0 km/h (0 Bft) O-SO 112 0 min 0,0 UV-I 8,2 C 14,9 C 0,0 km/h (0 Bft)
13.05.2011 20:20 17,1 C 17,6 C 15,3 C 16,3 C 14,6 C 0,0 C 55 % 64 % 0 % 1020,4 hPa 0,0 l/m 0,0 km/h (0 Bft) O-SO 112 0 min 0,0 UV-I 8,0 C 14,6 C 0,0 km/h (0 Bft)
13.05.2011 20:25 16,8 C 17,6 C 15,1 C 15,9 C 14,1 C 0,0 C 55 % 65 % 0 % 1020,4 hPa 0,0 l/m 0,0 km/h (0 Bft) O-NO 67 0 min 0,0 UV-I 7,7 C 14,1 C 0,0 km/h (0 Bft)
13.05.2011 20:30 16,7 C 17,7 C 14,9 C 15,7 C 13,8 C 0,0 C 57 % 67 % 0 % 1020,4 hPa 0,0 l/m 0,0 km/h (0 Bft) NO 45 0 min 0,0 UV-I 8,1 C 13,8 C 0,0 km/h (0 Bft)
13.05.2011 20:35 16,8 C 17,7 C 14,8 C 15,6 C 13,2 C 0,0 C 59 % 69 % 0 % 1020,1 hPa 0,0 l/m 0,0 km/h (0 Bft) NW 315 0 min 0,0 UV-I 8,7 C 13,2 C 0,0 km/h (0 Bft)
13.05.2011 20:40 16,7 C 17,7 C 14,7 C 15,5 C 13,0 C 0,0 C 60 % 69 % 0 % 1020,1 hPa 0,0 l/m 0,0 km/h (0 Bft) N-NW 337 0 min 0,0 UV-I 8,9 C 13,0 C 0,0 km/h (0 Bft)
13.05.2011 20:45 16,5 C 17,7 C 14,5 C 15,2 C 12,6 C 0,0 C 61 % 70 % 0 % 1020,1 hPa 0,0 l/m 0,0 km/h (0 Bft) N-NW 337 0 min 0,0 UV-I 9,0 C 12,6 C 0,0 km/h (0 Bft)
13.05.2011 20:50 16,2 C 17,7 C 14,4 C 14,9 C 12,4 C 0,0 C 62 % 70 % 0 % 1020,1 hPa 0,0 l/m 0,0 km/h (0 Bft) NO 45 0 min 0,0 UV-I 8,9 C 12,4 C 0,0 km/h (0 Bft)
13.05.2011 20:55 15,7 C 17,7 C 14,0 C 14,5 C 12,1 C 0,0 C 63 % 71 % 0 % 1020,1 hPa 0,0 l/m 0,0 km/h (0 Bft) O-NO 67 0 min 0,0 UV-I 8,7 C 12,1 C 0,0 km/h (0 Bft)
13.05.2011 21:00 15,7 C 17,7 C 13,8 C 14,5 C 12,0 C 0,0 C 64 % 72 % 0 % 1020,1 hPa 0,0 l/m 0,0 km/h (0 Bft) O-NO 67 0 min 0,0 UV-I 8,9 C 12,0 C 0,0 km/h (0 Bft)
13.05.2011 21:10 15,7 C 17,7 C 13,6 C 14,3 C 11,5 C 0,0 C 66 % 77 % 0 % 1020,1 hPa 0,0 l/m 0,0 km/h (0 Bft) N 0 0 min 0,0 UV-I 9,4 C 11,5 C 0,0 km/h (0 Bft)
13.05.2011 21:15 15,6 C 17,7 C 13,5 C 14,2 C 11,3 C 0,0 C 66 % 77 % 0 % 1020,1 hPa 0,0 l/m 0,2 km/h (0 Bft) SW 225 0 min 0,0 UV-I 9,3 C 11,3 C 0,0 km/h (0 Bft)
13.05.2011 21:20 15,5 C 17,7 C 13,3 C 14,0 C 11,0 C 0,0 C 66 % 76 % 0 % 1020,1 hPa 0,0 l/m 0,0 km/h (0 Bft) NW 315 0 min 0,0 UV-I 9,2 C 11,0 C 0,0 km/h (0 Bft)
13.05.2011 21:25 15,2 C 17,7 C 13,0 C 13,8 C 10,9 C 0,0 C 66 % 76 % 0 % 1020,1 hPa 0,0 l/m 0,0 km/h (0 Bft) N-NO 22 0 min 0,0 UV-I 8,9 C 10,9 C 0,0 km/h (0 Bft)
13.05.2011 21:30 14,8 C 17,7 C 12,8 C 13,4 C 10,7 C 0,0 C 66 % 76 % 0 % 1020,1 hPa 0,0 l/m 0,0 km/h (0 Bft) O-NO 67 0 min 0,0 UV-I 8,5 C 10,7 C 0,0 km/h (0 Bft)
13.05.2011 21:35 14,4 C 17,7 C 12,7 C 13,1 C 10,5 C 0,0 C 68 % 77 % 0 % 1020,1 hPa 0,0 l/m 0,0 km/h (0 Bft) N-NO 22 0 min 0,0 UV-I 8,6 C 10,5 C 0,0 km/h (0 Bft)
13.05.2011 21:40 14,4 C 17,8 C 12,5 C 13,0 C 10,3 C 0,0 C 68 % 77 % 0 % 1020,1 hPa 0,0 l/m 0,0 km/h (0 Bft) N-NO 22 0 min 0,0 UV-I 8,6 C 10,3 C 0,0 km/h (0 Bft)
13.05.2011 21:45 14,2 C 17,8 C 12,4 C 12,8 C 10,0 C 0,0 C 69 % 78 % 0 % 1020,1 hPa 0,0 l/m 0,0 km/h (0 Bft) W-SW 247 0 min 0,0 UV-I 8,6 C 10,0 C 0,0 km/h (0 Bft)
13.05.2011 21:50 14,3 C 17,8 C 12,4 C 12,8 C 9,8 C 0,0 C 70 % 79 % 0 % 1020,1 hPa 0,0 l/m 0,0 km/h (0 Bft) S 180 0 min 0,0 UV-I 8,9 C 9,8 C 0,0 km/h (0 Bft)
13.05.2011 21:55 14,3 C 17,8 C 12,2 C 12,7 C 9,6 C 0,0 C 71 % 81 % 0 % 1020,1 hPa 0,0 l/m 0,2 km/h (0 Bft) W-SW 247 0 min 0,0 UV-I 9,1 C 9,6 C 2,1 km/h (1 Bft)
13.05.2011 22:00 14,3 C 17,8 C 12,1 C 12,7 C 9,5 C 0,0 C 70 % 81 % 0 % 1020,1 hPa 0,0 l/m 0,2 km/h (0 Bft) W-SW 247 0 min 0,0 UV-I 8,9 C 9,5 C 0,0 km/h (0 Bft)
13.05.2011 22:10 13,9 C 17,8 C 11,9 C 12,3 C 9,2 C 0,0 C 71 % 81 % 0 % 1020,1 hPa 0,0 l/m 0,0 km/h (0 Bft) N 0 0 min 0,0 UV-I 8,7 C 9,2 C 0,0 km/h (0 Bft)
13.05.2011 22:15 13,9 C 17,8 C 11,7 C 12,3 C 9,2 C 0,0 C 72 % 81 % 0 % 1019,9 hPa 0,0 l/m 0,0 km/h (0 Bft) N-NW 337 0 min 0,0 UV-I 8,9 C 9,2 C 0,0 km/h (0 Bft)
13.05.2011 22:20 13,6 C 17,8 C 11,6 C 12,1 C 9,1 C 0,0 C 72 % 82 % 0 % 1019,9 hPa 0,0 l/m 0,0 km/h (0 Bft) N-NO 22 0 min 0,0 UV-I 8,6 C 9,1 C 0,0 km/h (0 Bft)
13.05.2011 22:25 13,5 C 17,8 C 11,4 C 12,0 C 8,9 C 0,0 C 73 % 82 % 0 % 1019,9 hPa 0,0 l/m 0,0 km/h (0 Bft) N-NW 337 0 min 0,0 UV-I 8,8 C 8,9 C 0,0 km/h (0 Bft)
13.05.2011 22:30 13,3 C 17,8 C 11,5 C 11,8 C 8,9 C 0,0 C 73 % 82 % 0 % 1019,9 hPa 0,0 l/m 0,0 km/h (0 Bft) W 270 0 min 0,0 UV-I 8,6 C 8,9 C 0,0 km/h (0 Bft)
13.05.2011 22:35 13,2 C 17,8 C 11,4 C 11,7 C 8,7 C 0,0 C 73 % 83 % 0 % 1019,9 hPa 0,0 l/m 0,0 km/h (0 Bft) W 270 0 min 0,0 UV-I 8,5 C 8,7 C 0,0 km/h (0 Bft)
13.05.2011 22:40 13,2 C 17,8 C 11,4 C 11,7 C 8,6 C 0,0 C 74 % 83 % 0 % 1019,9 hPa 0,0 l/m 0,0 km/h (0 Bft) W-SW 247 0 min 0,0 UV-I 8,7 C 8,6 C 0,0 km/h (0 Bft)
13.05.2011 22:45 13,3 C 17,8 C 11,2 C 11,7 C 8,6 C 0,0 C 74 % 84 % 0 % 1019,9 hPa 0,0 l/m 0,3 km/h (0 Bft) W-SW 247 0 min 0,0 UV-I 8,8 C 8,6 C 0,0 km/h (0 Bft)
13.05.2011 22:50 13,1 C 17,8 C 11,2 C 11,5 C 8,4 C 0,0 C 73 % 84 % 0 % 1019,9 hPa 0,0 l/m 0,3 km/h (0 Bft) W-SW 247 0 min 0,0 UV-I 8,4 C 8,4 C 0,0 km/h (0 Bft)
13.05.2011 22:55 12,7 C 17,8 C 10,8 C 11,2 C 8,3 C 0,0 C 74 % 83 % 0 % 1019,8 hPa 0,0 l/m 0,0 km/h (0 Bft) N-NW 337 0 min 0,0 UV-I 8,2 C 8,3 C 0,0 km/h (0 Bft)
13.05.2011 23:00 12,7 C 17,7 C 10,8 C 11,2 C 8,2 C 0,0 C 74 % 83 % 0 % 1019,8 hPa 0,0 l/m 0,0 km/h (0 Bft) W-NW 292 0 min 0,0 UV-I 8,2 C 8,2 C 0,0 km/h (0 Bft)
13.05.2011 23:10 12,4 C 17,8 C 10,7 C 11,0 C 8,1 C 0,0 C 75 % 84 % 0 % 1019,8 hPa 0,0 l/m 0,0 km/h (0 Bft) N 0 0 min 0,0 UV-I 8,1 C 8,1 C 0,0 km/h (0 Bft)
13.05.2011 23:15 12,5 C 17,8 C 10,5 C 11,0 C 7,9 C 0,0 C 75 % 84 % 0 % 1019,7 hPa 0,0 l/m 0,0 km/h (0 Bft) NW 315 0 min 0,0 UV-I 8,2 C 7,9 C 0,0 km/h (0 Bft)
13.05.2011 23:20 12,4 C 17,7 C 10,4 C 10,9 C 7,9 C 0,0 C 75 % 84 % 0 % 1019,7 hPa 0,0 l/m 0,0 km/h (0 Bft) NW 315 0 min 0,0 UV-I 8,1 C 7,9 C 0,0 km/h (0 Bft)
13.05.2011 23:25 12,3 C 17,7 C 10,3 C 10,8 C 7,9 C 0,0 C 75 % 84 % 0 % 1019,7 hPa 0,0 l/m 0,0 km/h (0 Bft) N-NO 22 0 min 0,0 UV-I 8,0 C 7,9 C 0,0 km/h (0 Bft)
13.05.2011 23:30 12,3 C 17,7 C 10,3 C 10,8 C 7,8 C 0,0 C 76 % 85 % 0 % 1019,7 hPa 0,0 l/m 0,0 km/h (0 Bft) S-SW 202 0 min 0,0 UV-I 8,2 C 7,8 C 0,0 km/h (0 Bft)
13.05.2011 23:35 12,0 C 17,8 C 10,2 C 10,5 C 7,6 C 0,0 C 75 % 85 % 0 % 1019,4 hPa 0,0 l/m 0,0 km/h (0 Bft) S 180 0 min 0,0 UV-I 7,7 C 7,6 C 0,0 km/h (0 Bft)
13.05.2011 23:40 12,1 C 17,7 C 10,3 C 10,6 C 7,6 C 0,0 C 77 % 86 % 0 % 1019,4 hPa 0,0 l/m 0,2 km/h (0 Bft) SW 225 0 min 0,0 UV-I 8,2 C 7,6 C 1,6 km/h (1 Bft)
13.05.2011 23:45 12,1 C 17,7 C 10,3 C 10,6 C 7,6 C 0,0 C 77 % 86 % 0 % 1019,4 hPa 0,0 l/m 0,2 km/h (0 Bft) SW 225 0 min 0,0 UV-I 8,2 C 7,6 C 0,0 km/h (0 Bft)
13.05.2011 23:50 11,9 C 17,7 C 10,1 C 10,4 C 7,5 C 0,0 C 76 % 86 % 0 % 1019,4 hPa 0,0 l/m 0,2 km/h (0 Bft) SW 225 0 min 0,0 UV-I 7,8 C 7,5 C 0,0 km/h (0 Bft)
13.05.2011 23:55 11,9 C 17,6 C 10,0 C 10,4 C 7,4 C 0,0 C 77 % 86 % 0 % 1019,4 hPa 0,0 l/m 0,0 km/h (0 Bft) S-SW 202 0 min 0,0 UV-I 8,0 C 7,4 C 0,0 km/h (0 Bft)
_ Min-Zeit 05:10 11:20 05:10 05:10 05:20 00:00 18:15 16:00 00:00 00:00 - 03:20 - - - 00:00 19:45 05:20 01:15
Minimum _ 10,4 C 16,4 C 8,6 C 9,3 C 7,0 C 0,0 C 41 % 44 % 0 % 1015,0 hPa - 0,0 km/h (0 Bft) - - - 0,0 UV-I 6,7 C 7,0 C 0,0 km/h (0 Bft)
_ Max-Zeit 18:25 00:00 15:45 15:55 15:55 16:00 00:00 00:00 10:15 12:35 04:10 12:40 - - 09:10 13:35 00:00 15:55 12:45
Maximum _ 21,1 C 18,9 C 22,4 C 24,8 C 24,8 C 5,0 C 84 % 94 % 100 % 1022,8 hPa 0,7 l/m 8,2 km/h
S (2 Bft)
- - 10 min 3,8 UV-I 12,2 C 24,8 C 17,5 km/h
S (3 Bft)
Durchschnitt _ 15,2 C 17,3 C 13,4 C 15,8 C 14,7 C 1,2 C 66 % 76 % 30 % 1020,1 hPa #0,7 l/m 2,7 km/h (1 Bft) SW - #2:20 h 1,4 UV-I 8,3 C 14,7 C 3,5 km/h (1 Bft)
2013 www.wetterstation-wechselburg.de